[ hide orbit diagram ]
For accurate long-term ephemerides, please instead use our Horizons system.This orbit viewer was implemented using two-body methods, and hence should not be used for determining accurate long-term trajectories (over several years or decades) or planetary encounter circumstances.
Orbital Elements at Epoch 2459000.5 (2020-May-31.0) TDB
Reference: JPL 12 (heliocentric ecliptic J2000)
Element | Value | Uncertainty (1-sigma) | Units |
e | .1507422820008116 | 5.7654e-08 | |
a | 2.660669310471623 | 2.1786e-08 | au |
q | 2.259593946961604 | 1.5527e-07 | au |
i | 9.575303177436481 | 6.0186e-06 | deg |
node | 64.54850083333861 | 4.3154e-05 | deg |
peri | 349.8712151161614 | 5.1668e-05 | deg |
M | 329.8614293704285 | 3.0805e-05 | deg |
tp | 2459133.210390735797 (2020-Oct-10.71039074) | 0.00013663 | TDB |
period | 1585.20260473169 4.34 | 1.9469e-05 5.33e-08 | d yr |
n | .2271003081406955 | 2.7892e-09 | deg/d |
Q | 3.061744673981641 | 2.507e-08 | au |
|
| | Orbit Determination Parameters
Additional Information
|
[ hide covariance matrix ]
Orbital Elements at Epoch 2456978.5 (2014-Nov-17.0) TDB
Reference: JPL 12 (heliocentric ecliptic J2000)
Element | Value | Uncertainty (1-sigma) | Units |
e | .1513090631028236 | 5.7444e-08 | |
q | 2.258861802351404 | 1.5506e-07 | au |
tp | 2457540.638196396110 (2016-Jun-01.13819640) | 0.00012443 | TDB |
node | 64.6034966667175 | 4.3179e-05 | deg |
peri | 348.5982624227598 | 5.1603e-05 | deg |
i | 9.574314993388379 | 6.0146e-06 | deg |
|
| | Orbit Determination Parameters
Additional Information
|
Orbit Covariance (6×6)
|
|
e |
q |
tp |
node |
peri |
i |
e |
3.299861383432935E-15 |
-8.840806825352811E-15 |
-3.71128947099082E-13 |
-3.5091156581684E-14 |
9.18387355421311E-14 |
-7.082173329974182E-15 |
q |
-8.840806825352811E-15 |
2.40440387535391E-14 |
2.27142405570383E-12 |
1.004289516625383E-13 |
1.56410789032028E-14 |
2.167716898621273E-14 |
tp |
-3.71128947099082E-13 |
2.27142405570383E-12 |
1.548246203496263E-8 |
6.318923442092996E-11 |
3.551718859193458E-9 |
2.744905494366957E-11 |
node |
-3.5091156581684E-14 |
1.004289516625383E-13 |
6.318923442092996E-11 |
1.864420480827299E-9 |
-1.825458413756679E-9 |
5.917341545479405E-12 |
peri |
9.18387355421311E-14 |
1.56410789032028E-14 |
3.551718859193458E-9 |
-1.825458413756679E-9 |
2.662896617086265E-9 |
2.9174905558495E-13 |
i |
-7.082173329974182E-15 |
2.167716898621273E-14 |
2.744905494366957E-11 |
5.917341545479405E-12 |
2.9174905558495E-13 |
3.617510150606258E-11 |
|
Physical Parameter Table
Parameter |
Symbol |
Value |
Units |
Sigma |
Reference |
Notes |
absolute magnitude |
H |
16.6 |
|
n/a |
MPO476357 |
|
|
305134 (2007 VV152) Discovered 2007-Nov-02 by Spacewatch at Kitt Peak |
Reference: 20111110/Numbers.arc | Last Updated: 2011-11-14 |
|
[ show close-approach data ]
|